Location: Gerlach
(40.6516°N, 119.3568°W)
Time: 09:57:10
(UTC-08:00)

Transit 2A Rocket - All Passes

Search period start: 09 December 2023 00:00
Search period end: 19 December 2023 00:00
Orbit: 593 x 903 km, 66.7° (Epoch: 08 December)

Date Brightness Start Highest point End Pass type
(mag) Time Alt. Az. Time Alt. Az. Time Alt. Az.
09 Dec - 04:30:56 10° NNW 04:35:07 43° NE 04:39:31 10° SE visible
09 Dec - 06:14:10 10° WNW 06:17:16 19° WSW 06:20:29 10° SSW visible
09 Dec - 19:04:53 10° S 19:09:11 34° ESE 19:13:15 10° NE visible
09 Dec - 20:47:46 10° WSW 20:51:40 26° NW 20:55:23 10° N night (unlit)
10 Dec - 03:47:42 10° N 03:51:19 24° NE 03:55:04 10° ESE visible
10 Dec - 05:29:46 10° NW 05:33:48 35° WSW 05:38:03 10° S visible
10 Dec - 18:22:31 10° SSE 18:25:44 18° ESE 18:28:49 10° ENE visible
10 Dec - 20:03:21 10° SW 20:07:52 46° WNW 20:12:09 10° NNE visible
11 Dec - 03:04:54 10° N 03:07:23 15° NE 03:09:55 10° E visible
11 Dec - 04:45:52 10° NW 04:50:15 70° WSW 04:54:55 10° SSE visible
11 Dec - 19:19:27 10° SSW 19:24:12 87° NW 19:28:38 10° NNE visible
11 Dec - 21:05:35 10° WNW 21:07:14 12° NW 21:08:53 10° NNW night (unlit)
12 Dec - 04:02:15 10° NNW 04:06:36 61° ENE 04:11:14 10° SE visible
12 Dec - 05:46:27 10° WNW 05:48:36 13° WSW 05:50:49 10° SW visible
12 Dec - 18:36:02 10° S 18:40:36 48° ESE 18:44:53 10° NE visible
12 Dec - 20:19:54 10° W 20:23:15 20° NW 20:26:29 10° N visible
13 Dec - 03:18:53 10° N 03:22:52 33° NE 03:27:02 10° ESE visible
13 Dec - 05:01:30 10° NW 05:05:11 26° WSW 05:09:03 10° SSW visible
13 Dec - 17:53:14 10° SSE 17:57:05 25° ESE 18:00:44 10° NE visible
13 Dec - 19:35:10 10° WSW 19:39:24 34° NW 19:43:24 10° NNE visible
14 Dec - 02:35:49 10° N 02:39:00 19° NE 02:42:17 10° E night (unlit)
14 Dec - 04:17:23 10° NW 04:21:40 49° WSW 04:26:13 10° S visible
14 Dec - 17:11:33 10° SE 17:13:40 13° ESE 17:15:43 10° E visible
14 Dec - 18:51:00 10° SW 18:55:39 63° WNW 19:00:01 10° NNE visible
15 Dec - 01:53:31 10° NNE 01:55:00 11° NE 01:56:30 10° ENE night (unlit)
15 Dec - 03:33:38 10° NNW 03:38:05 85° ENE 03:42:47 10° SSE visible
15 Dec - 18:07:20 10° SSW 18:12:01 68° ESE 18:16:24 10° NE visible
15 Dec - 19:52:14 10° W 19:54:51 15° NW 19:57:26 10° N visible
16 Dec - 02:50:09 10° NNW 02:54:23 44° ENE 02:58:52 10° SE night (unlit)
16 Dec - 04:33:24 10° WNW 04:36:32 19° WSW 04:39:48 10° SSW visible
16 Dec - 17:24:13 10° S 17:28:28 34° ESE 17:32:29 10° NE visible
16 Dec - 19:07:07 10° WSW 19:10:56 25° NW 19:14:36 10° N visible
17 Dec - 02:06:55 10° N 02:10:35 25° NE 02:14:25 10° ESE night (unlit)
17 Dec - 03:48:59 10° NW 03:53:04 35° WSW 03:57:23 10° S night (unlit)
17 Dec - 16:41:49 10° SSE 16:44:59 18° ESE 16:48:03 10° ENE daylight
17 Dec - 18:22:41 10° SW 18:27:08 45° WNW 18:31:21 10° NNE visible
18 Dec - 01:24:04 10° N 01:26:39 15° NE 01:29:18 10° E night (unlit)
18 Dec - 03:05:05 10° NW 03:09:30 69° WSW 03:14:14 10° SSE night (unlit)
18 Dec - 17:38:46 10° SSW 17:43:27 86° WNW 17:47:51 10° NNE visible
18 Dec - 19:25:02 10° WNW 19:26:30 11° NW 19:27:58 10° NNW visible
